M I D A S
Marine Information and Data Acquisition System
Tripno 661 of the Zeeleeuw from 2004-03-04 07:28:48 to 2004-03-04 15:23:20
Back to CruiseResearch ActivitiesStationsMapUnderway DataData graphs

EquipmentUnitsComments
TimeDGPSUTC
LatitudeDGPSDM.mWGS84
LongitudeDGPSDM.mWGS84
SpeedMeteo Stationm/sRelative wind speed
DirectionMeteo StationdegRelative wind direction
TemperatureMeteo Stationdeg CelciusAir temperature
PressureMeteo StationPaAtmospheric pressure
HumidityMeteo Station%Relative humidity
Missing or incorrect values are displayed as -999
Metereological data collected by the RV Zeeleeuw from 2004-03-04 07:28:48 to 2004-03-04 15:23:20
                                                                                    Next 1000 lines
Time Latitude Longitude Speed Direction Temperature Pressure Humidity
2004-03-04 07:28:57 51°13.611 2°56.038 1.2 125 5.2 102210 69
2004-03-04 07:29:02 51°13.614 2°56.029 1.5 126 5.2 102210 69
2004-03-04 07:29:07 51°13.616 2°56.02 1.3 113 5.2 102210 69
2004-03-04 07:29:12 51°13.619 2°56.011 1.5 120 5.3 102210 69
2004-03-04 07:29:18 51°13.622 2°56 1.3 127 5.3 102210 69
2004-03-04 07:29:22 51°13.624 2°55.993 1.8 120 5.2 102210 69
2004-03-04 07:29:27 51°13.627 2°55.983 1.7 129 5.2 102210 69
2004-03-04 07:29:32 51°13.63 2°55.973 1.8 150 5.2 102210 69
2004-03-04 07:29:37 51°13.633 2°55.963 1.8 130 5.2 102210 69
2004-03-04 07:29:42 51°13.636 2°55.953 2.3 116 5.2 102210 69
2004-03-04 07:29:47 51°13.639 2°55.943 2.1 117 5.2 102210 69
2004-03-04 07:29:52 51°13.642 2°55.933 1.9 127 5.3 102210 69
2004-03-04 07:29:56 51°13.644 2°55.925 1.7 133 5.3 102210 69
2004-03-04 07:30:02 51°13.647 2°55.912 1.7 136 5.3 102210 69
2004-03-04 07:30:07 51°13.65 2°55.901 1.7 138 5.3 102210 69
2004-03-04 07:30:12 51°13.653 2°55.89 1.8 126 5.2 102210 69
2004-03-04 07:30:16 51°13.655 2°55.881 1.8 125 5.2 102210 69
2004-03-04 07:30:22 51°13.658 2°55.868 2 133 5.3 102210 69
2004-03-04 07:30:27 51°13.66 2°55.857 2.2 143 5.3 102210 69
2004-03-04 07:30:32 51°13.662 2°55.846 1.7 149 5.3 102210 69
2004-03-04 07:30:37 51°13.664 2°55.835 2.4 149 5.3 102210 69
2004-03-04 07:30:42 51°13.665 2°55.823 2 158 5.3 102210 69
2004-03-04 07:30:47 51°13.667 2°55.812 2 149 5.3 102210 69
2004-03-04 07:30:52 51°13.668 2°55.802 2.3 162 5.3 102210 69
2004-03-04 07:30:58 51°13.669 2°55.791 2 161 5.3 102210 69
2004-03-04 07:31:02 51°13.67 2°55.785 1.8 148 5.3 102210 69
2004-03-04 07:31:07 51°13.67 2°55.778 1.7 149 5.3 102210 69
2004-03-04 07:31:11 51°13.671 2°55.773 2.1 128 5.3 102200 69
2004-03-04 07:31:16 51°13.671 2°55.769 1.5 107 5.3 102200 69
2004-03-04 07:31:22 51°13.671 2°55.767 2.6 121 5.3 102210 69
2004-03-04 07:31:26 51°13.672 2°55.767 2.3 115 5.3 102210 69
2004-03-04 07:31:30 51°13.673 2°55.767 2.5 98 5.3 102210 69
2004-03-04 07:31:36 51°13.674 2°55.769 2.5 116 5.3 102210 69
2004-03-04 07:31:40 51°13.676 2°55.771 1.7 105 5.3 102210 69
2004-03-04 07:31:46 51°13.679 2°55.774 1.4 103 5.3 102210 69
2004-03-04 07:31:51 51°13.682 2°55.777 1.4 54 5.3 102200 69
2004-03-04 07:31:56 51°13.686 2°55.779 1.2 53 5.3 102200 69
2004-03-04 07:32:02 51°13.692 2°55.781 1.5 53 5.3 102200 69
2004-03-04 07:32:06 51°13.696 2°55.782 1.3 72 5.3 102200 69
2004-03-04 07:32:11 51°13.702 2°55.781 0.9 100 5.3 102200 69
2004-03-04 07:32:16 51°13.708 2°55.779 0.9 46 5.3 102200 69
2004-03-04 07:32:22 51°13.715 2°55.774 0.7 17 5.3 102200 69
2004-03-04 07:32:26 51°13.719 2°55.77 1.3 316 5.3 102200 69
2004-03-04 07:32:31 51°13.725 2°55.764 1.7 314 5.3 102200 69
2004-03-04 07:32:36 51°13.73 2°55.758 1.7 288 5.3 102200 69
2004-03-04 07:32:42 51°13.735 2°55.749 1.1 291 5.3 102210 69
2004-03-04 07:32:46 51°13.74 2°55.743 1.3 312 5.3 102210 69
2004-03-04 07:32:51 51°13.745 2°55.735 1.4 308 5.3 102200 69
2004-03-04 07:32:56 51°13.751 2°55.726 1.6 302 5.3 102200 69
2004-03-04 07:33:02 51°13.759 2°55.715 1.8 293 5.3 102210 69
2004-03-04 07:33:06 51°13.764 2°55.707 2.1 273 5.3 102210 69
2004-03-04 07:33:11 51°13.771 2°55.697 1.6 251 5.3 102210 69
2004-03-04 07:33:16 51°13.778 2°55.687 1.7 254 5.3 102210 69
2004-03-04 07:33:22 51°13.787 2°55.674 1.5 269 5.3 102210 69
2004-03-04 07:33:26 51°13.794 2°55.666 1.2 301 5.3 102210 69
2004-03-04 07:33:30 51°13.8 2°55.658 1.4 329 5.3 102210 68
2004-03-04 07:33:36 51°13.811 2°55.646 1.4 333 5.3 102210 68
2004-03-04 07:33:40 51°13.818 2°55.639 1 336 5.3 102210 68
2004-03-04 07:33:47 51°13.831 2°55.627 0.7 336 5.3 102210 68
2004-03-04 07:33:52 51°13.841 2°55.619 1.1 348 5.3 102210 68
2004-03-04 07:33:56 51°13.849 2°55.613 1.1 4 5.3 102210 68
2004-03-04 07:34:00 51°13.857 2°55.607 0.8 5 5.3 102210 68
2004-03-04 07:34:06 51°13.869 2°55.598 1.1 3 5.3 102210 68
2004-03-04 07:34:11 51°13.88 2°55.59 1.3 17 5.3 102210 68
2004-03-04 07:34:16 51°13.89 2°55.582 1.5 35 5.3 102210 68
2004-03-04 07:34:22 51°13.903 2°55.573 1.5 35 5.3 102210 68
2004-03-04 07:34:26 51°13.912 2°55.567 1.3 26 5.3 102210 68
2004-03-04 07:34:30 51°13.92 2°55.561 0.9 350 5.3 102210 68
2004-03-04 07:34:36 51°13.933 2°55.552 1.4 338 5.3 102210 68
2004-03-04 07:34:42 51°13.946 2°55.542 1.6 336 5.4 102210 68
2004-03-04 07:34:46 51°13.954 2°55.536 1.1 323 5.4 102210 68
2004-03-04 07:34:52 51°13.967 2°55.527 1.6 345 5.4 102210 68
2004-03-04 07:34:56 51°13.976 2°55.521 1.7 354 5.4 102210 68
2004-03-04 07:35:02 51°13.989 2°55.513 1.7 358 5.4 102210 68
2004-03-04 07:35:06 51°13.998 2°55.506 1.3 354 5.4 102210 68
2004-03-04 07:35:10 51°14.007 2°55.5 1.3 355 5.4 102210 68
2004-03-04 07:35:16 51°14.02 2°55.491 1.6 360 5.4 102210 68
2004-03-04 07:35:22 51°14.032 2°55.481 1.1 335 5.4 102210 68
2004-03-04 07:35:26 51°14.041 2°55.475 0.7 325 5.4 102210 68
2004-03-04 07:35:32 51°14.054 2°55.465 0.7 42 5.4 102210 68
2004-03-04 07:35:36 51°14.062 2°55.458 0.7 317 5.4 102210 68
2004-03-04 07:35:40 51°14.071 2°55.452 1.6 310 5.4 102210 68
2004-03-04 07:35:47 51°14.086 2°55.441 1.4 291 5.4 102210 68
2004-03-04 07:35:52 51°14.097 2°55.433 1.3 303 5.4 102210 68
2004-03-04 07:35:56 51°14.106 2°55.427 0.8 308 5.4 102210 68
2004-03-04 07:36:02 51°14.118 2°55.417 1 301 5.4 102210 68
2004-03-04 07:36:07 51°14.129 2°55.409 1.5 227 5.4 102210 68
2004-03-04 07:36:12 51°14.14 2°55.4 1.9 305 5.4 102210 68
2004-03-04 07:36:16 51°14.148 2°55.393 1.6 316 5.4 102210 68
2004-03-04 07:36:22 51°14.161 2°55.382 1.7 319 5.4 102210 68
2004-03-04 07:36:27 51°14.171 2°55.372 2 322 5.4 102210 68
2004-03-04 07:36:32 51°14.18 2°55.362 1.9 328 5.4 102210 68
2004-03-04 07:36:36 51°14.188 2°55.353 2.5 324 5.4 102210 68
2004-03-04 07:36:42 51°14.199 2°55.34 2.9 289 5.4 102210 68
2004-03-04 07:36:47 51°14.208 2°55.328 1.8 310 5.4 102210 68
2004-03-04 07:36:52 51°14.217 2°55.316 1.8 310 5.4 102210 68
2004-03-04 07:36:56 51°14.224 2°55.306 2.2 228 5.4 102210 68
2004-03-04 07:37:02 51°14.235 2°55.29 2 317 5.4 102210 68
2004-03-04 07:37:07 51°14.244 2°55.276 2.8 337 5.4 102210 68
2004-03-04 07:37:12 51°14.254 2°55.261 2.7 332 5.4 102210 68
2004-03-04 07:37:16 51°14.262 2°55.248 2.6 229 5.4 102210 68
2004-03-04 07:37:22 51°14.275 2°55.227 2.9 321 5.4 102210 68
2004-03-04 07:37:26 51°14.284 2°55.213 4.3 352 5.4 102210 68
2004-03-04 07:37:31 51°14.295 2°55.195 4.7 1 5.4 102210 68
2004-03-04 07:37:36 51°14.307 2°55.176 3.7 343 5.4 102210 68
2004-03-04 07:37:42 51°14.32 2°55.154 3.5 350 5.4 102210 67
2004-03-04 07:37:46 51°14.329 2°55.139 3.7 350 5.4 102210 67
2004-03-04 07:37:52 51°14.342 2°55.115 3.9 319 5.4 102210 68
2004-03-04 07:37:56 51°14.351 2°55.098 4.4 340 5.4 102210 68
2004-03-04 07:38:02 51°14.364 2°55.073 4.5 335 5.4 102210 68
2004-03-04 07:38:07 51°14.374 2°55.052 4.2 347 5.4 102210 68
2004-03-04 07:38:11 51°14.383 2°55.035 5.9 333 5.4 102210 68
2004-03-04 07:38:16 51°14.393 2°55.014 5.6 318 5.4 102210 68
2004-03-04 07:38:22 51°14.406 2°54.988 4.4 330 5.4 102210 67
2004-03-04 07:38:26 51°14.414 2°54.971 4.7 334 5.4 102210 67
2004-03-04 07:38:31 51°14.424 2°54.948 5.8 317 5.4 102200 67
2004-03-04 07:38:36 51°14.433 2°54.925 5.8 42 5.4 102200 67
2004-03-04 07:38:40 51°14.44 2°54.906 5.9 319 5.4 102200 67
2004-03-04 07:38:46 51°14.449 2°54.876 6.6 41 5.4 102200 67
2004-03-04 07:38:51 51°14.455 2°54.851 6.8 321 5.4 102200 67
2004-03-04 07:38:56 51°14.462 2°54.825 6.7 229 5.4 102200 67
2004-03-04 07:39:00 51°14.466 2°54.804 6.3 232 5.4 102190 67
2004-03-04 07:39:06 51°14.474 2°54.773 6.7 306 5.4 102190 67
2004-03-04 07:39:11 51°14.478 2°54.746 7.8 322 5.4 102190 67
2004-03-04 07:39:16 51°14.482 2°54.719 7.5 316 5.4 102190 67
2004-03-04 07:39:22 51°14.484 2°54.686 7.6 315 5.4 102190 67
2004-03-04 07:39:26 51°14.486 2°54.664 7.9 315 5.4 102190 67
2004-03-04 07:39:31 51°14.486 2°54.636 6.9 321 5.4 102190 67
2004-03-04 07:39:36 51°14.486 2°54.608 7.5 321 5.4 102190 67
2004-03-04 07:39:42 51°14.485 2°54.575 8.1 226 5.4 102190 67
2004-03-04 07:39:46 51°14.484 2°54.552 8.7 323 5.4 102190 67
2004-03-04 07:39:51 51°14.483 2°54.525 9.1 323 5.4 102190 66
2004-03-04 07:39:56 51°14.481 2°54.497 7.9 325 5.4 102190 66
2004-03-04 07:40:02 51°14.476 2°54.466 8.4 328 5.4 102180 67
2004-03-04 07:40:06 51°14.473 2°54.447 8.6 331 5.4 102180 67
2004-03-04 07:40:11 51°14.468 2°54.425 9.3 328 5.4 102180 67
2004-03-04 07:40:16 51°14.463 2°54.406 8 322 5.4 102180 67
2004-03-04 07:40:21 51°14.458 2°54.388 9.4 42 5.5 102180 67
2004-03-04 07:40:26 51°14.453 2°54.371 8.4 231 5.5 102180 67
2004-03-04 07:40:30 51°14.45 2°54.357 7.6 309 5.5 102190 67
2004-03-04 07:40:36 51°14.446 2°54.338 7.6 307 5.5 102190 67
2004-03-04 07:40:40 51°14.444 2°54.326 6.8 306 5.5 102180 67
2004-03-04 07:40:47 51°14.441 2°54.306 6 307 5.5 102180 67
2004-03-04 07:40:52 51°14.439 2°54.293 7.2 306 5.5 102190 67
2004-03-04 07:40:56 51°14.438 2°54.283 7.2 294 5.5 102190 67
2004-03-04 07:41:02 51°14.437 2°54.269 7.3 292 5.5 102200 67
2004-03-04 07:41:06 51°14.436 2°54.26 6 276 5.5 102200 67
2004-03-04 07:41:11 51°14.436 2°54.251 5.4 283 5.4 102190 67
2004-03-04 07:41:16 51°14.435 2°54.241 5.1 285 5.4 102190 67
2004-03-04 07:41:22 51°14.436 2°54.231 5.6 283 5.4 102200 67
2004-03-04 07:41:26 51°14.436 2°54.224 6 279 5.4 102200 67
2004-03-04 07:41:31 51°14.437 2°54.216 6.5 273 5.4 102200 67
2004-03-04 07:41:36 51°14.437 2°54.208 6 272 5.4 102200 67
2004-03-04 07:41:42 51°14.438 2°54.199 5.8 279 5.4 102210 68
2004-03-04 07:41:46 51°14.438 2°54.193 6 280 5.4 102210 68
2004-03-04 07:41:52 51°14.439 2°54.185 6.5 273 5.5 102200 67
2004-03-04 07:41:56 51°14.439 2°54.179 5.6 276 5.5 102200 67
2004-03-04 07:42:02 51°14.44 2°54.171 6.7 272 5.4 102210 67
2004-03-04 07:42:06 51°14.441 2°54.165 7 269 5.4 102210 67
2004-03-04 07:42:11 51°14.442 2°54.159 5.8 271 5.5 102210 68
2004-03-04 07:42:16 51°14.442 2°54.153 5.5 273 5.5 102210 68
2004-03-04 07:42:22 51°14.443 2°54.145 6.1 271 5.5 102210 68
2004-03-04 07:42:26 51°14.443 2°54.14 4.9 274 5.5 102210 68
2004-03-04 07:42:32 51°14.443 2°54.133 5.9 275 5.4 102210 67
2004-03-04 07:42:36 51°14.444 2°54.128 6.7 271 5.4 102210 67
2004-03-04 07:42:42 51°14.444 2°54.121 5.8 277 5.4 102210 67
2004-03-04 07:42:46 51°14.444 2°54.117 4.9 278 5.4 102210 67
2004-03-04 07:42:51 51°14.444 2°54.111 5.3 278 5.4 102210 68
2004-03-04 07:42:56 51°14.444 2°54.106 4.8 278 5.4 102210 68
2004-03-04 07:43:02 51°14.444 2°54.099 4.5 275 5.5 102210 68
2004-03-04 07:43:06 51°14.444 2°54.095 4.6 286 5.5 102210 68
2004-03-04 07:43:11 51°14.444 2°54.09 4.9 277 5.4 102210 68
2004-03-04 07:43:16 51°14.444 2°54.085 5 290 5.4 102210 68
2004-03-04 07:43:20 51°14.444 2°54.081 5.3 276 5.4 102210 68
2004-03-04 07:43:26 51°14.444 2°54.075 5.7 275 5.4 102210 68
2004-03-04 07:43:31 51°14.444 2°54.071 6 271 5.4 102200 69
2004-03-04 07:43:36 51°14.444 2°54.066 5.4   5.4 102200 69
2004-03-04 07:43:42 51°14.443 2°54.06 5.1 281 5.4 102200 69
2004-03-04 07:43:47 51°14.443 2°54.056 5 280 5.4 102200 69
2004-03-04 07:43:51 51°14.443 2°54.052 5.5 281 5.4 102200 69
2004-03-04 07:43:56 51°14.443 2°54.048 4.6 286 5.4 102200 69
2004-03-04 07:44:02 51°14.442 2°54.042 5 276 5.4 102210 69
2004-03-04 07:44:06 51°14.442 2°54.039 5.5 278 5.4 102210 69
2004-03-04 07:44:11 51°14.442 2°54.035 4.6 280 5.4 102210 68
2004-03-04 07:44:16 51°14.442 2°54.031 5 284 5.4 102210 68
2004-03-04 07:44:22 51°14.441 2°54.026 4.8 284 5.4 102200 69
2004-03-04 07:44:27 51°14.441 2°54.021 5.3 282 5.4 102200 69
2004-03-04 07:44:31 51°14.441 2°54.018 4.4 281 5.4 102200 69
2004-03-04 07:44:36 51°14.44 2°54.014 5.7   5.4 102200 69
2004-03-04 07:44:42 51°14.44 2°54.01 4.5 282 5.4 102200 69
2004-03-04 07:44:46 51°14.44 2°54.007 4.8 280 5.4 102200 69
2004-03-04 07:44:52 51°14.439 2°54.002 4.8 289 5.4 102200 69
2004-03-04 07:44:56 51°14.439 2°53.999 4.3 288 5.4 102200 69
2004-03-04 07:45:00 51°14.439 2°53.996 4.1 289 5.4 102200 69
2004-03-04 07:45:06 51°14.438 2°53.992 4.4 290 5.4 102200 69
2004-03-04 07:45:11 51°14.438 2°53.987 4.5 297 5.4 102200 69
2004-03-04 07:45:16 51°14.436 2°53.981 4.7 298 5.4 102200 69
2004-03-04 07:45:22 51°14.434 2°53.972 5.6 311 5.4 102200 69
2004-03-04 07:45:27 51°14.432 2°53.964 5.4 41 5.4 102200 69
2004-03-04 07:45:31 51°14.429 2°53.956 6.5 322 5.4 102200 69
2004-03-04 07:45:36 51°14.425 2°53.945 7 321 5.4 102200 69
2004-03-04 07:45:42 51°14.419 2°53.93 7.5 324 5.4 102200 69
2004-03-04 07:45:46 51°14.415 2°53.919 8.1 330 5.4 102200 69
2004-03-04 07:45:51 51°14.408 2°53.904 8.9 334 5.4 102190 69
2004-03-04 07:45:56 51°14.401 2°53.886 9 333 5.4 102190 69
2004-03-04 07:46:00 51°14.394 2°53.871 10.2 332 5.4 102180 69
2004-03-04 07:46:07 51°14.382 2°53.843 9.9 334 5.4 102180 69
2004-03-04 07:46:11 51°14.374 2°53.825 10 335 5.4 102180 69
2004-03-04 07:46:16 51°14.364 2°53.802 10.5 333 5.4 102180 69
2004-03-04 07:46:22 51°14.352 2°53.774 9.4 333 5.4 102180 69
2004-03-04 07:46:26 51°14.345 2°53.754 10.8 329 5.4 102180 69
2004-03-04 07:46:30 51°14.337 2°53.735 10 333 5.4 102170 69
2004-03-04 07:46:36 51°14.324 2°53.705 11.5   5.4 102170 69
2004-03-04 07:46:40 51°14.316 2°53.685 10.9 332 5.4 102170 69
2004-03-04 07:46:46 51°14.304 2°53.655 10.3 337 5.4 102170 69
2004-03-04 07:46:51 51°14.293 2°53.629 12.2 329 5.4 102170 69
2004-03-04 07:46:56 51°14.283 2°53.603 11.5 330 5.4 102170 69
2004-03-04 07:47:02 51°14.271 2°53.571 11 331 5.4 102160 69
2004-03-04 07:47:06 51°14.262 2°53.55 11.2 329 5.4 102160 69
2004-03-04 07:47:12 51°14.25 2°53.519 10.8 329 5.4 102160 69
2004-03-04 07:47:16 51°14.242 2°53.498 10.8 336 5.4 102160 69
2004-03-04 07:47:20 51°14.234 2°53.476 11 334 5.4 102160 68
2004-03-04 07:47:26 51°14.22 2°53.445 10.7 326 5.4 102160 68
2004-03-04 07:47:31 51°14.21 2°53.419 10.7 332 5.4 102170 68
2004-03-04 07:47:36 51°14.2 2°53.392 10.6   5.4 102170 68
2004-03-04 07:47:40 51°14.192 2°53.37 11.1 335 5.4 102170 68
2004-03-04 07:47:47 51°14.177 2°53.334 10.9 331 5.4 102170 68
2004-03-04 07:47:52 51°14.166 2°53.307 10.9 334 5.4 102170 69
2004-03-04 07:47:56 51°14.157 2°53.286 10.2 340 5.4 102170 69
2004-03-04 07:48:01 51°14.146 2°53.26 10.5 339 5.4 102160 68
2004-03-04 07:48:06 51°14.135 2°53.234 11.3 338 5.4 102160 68
2004-03-04 07:48:10 51°14.127 2°53.212 11.6 331 5.4 102170 68
2004-03-04 07:48:16 51°14.114 2°53.181 12.1 337 5.4 102170 68
2004-03-04 07:48:22 51°14.101 2°53.149 11.4 330 5.4 102160 69
2004-03-04 07:48:26 51°14.092 2°53.128 10.8 333 5.4 102160 69
2004-03-04 07:48:31 51°14.082 2°53.102 10.8 334 5.4 102160 69
2004-03-04 07:48:36 51°14.071 2°53.075 9.8   5.4 102160 69
2004-03-04 07:48:40 51°14.062 2°53.054 11 331 5.3 102160 68
2004-03-04 07:48:47 51°14.047 2°53.016 11.3 330 5.3 102160 68
2004-03-04 07:48:51 51°14.038 2°52.995 9.7 338 5.3 102160 69
2004-03-04 07:48:56 51°14.027 2°52.969 11.1 336 5.3 102160 69
2004-03-04 07:49:02 51°14.014 2°52.937 10.4 339 5.3 102170 69
2004-03-04 07:49:06 51°14.006 2°52.916 9.7 339 5.3 102170 69
2004-03-04 07:49:10 51°13.997 2°52.894 10.8 336 5.3 102160 69
2004-03-04 07:49:16 51°13.984 2°52.862 10.6 336 5.3 102160 69
2004-03-04 07:49:20 51°13.976 2°52.841 9.9 336 5.3 102170 69
2004-03-04 07:49:27 51°13.961 2°52.803 11 336 5.3 102170 69
2004-03-04 07:49:32 51°13.95 2°52.777 10.2 331 5.3 102170 69
2004-03-04 07:49:36 51°13.941 2°52.755 10.8   5.3 102170 69
2004-03-04 07:49:42 51°13.929 2°52.723 11.3 333 5.3 102160 69
2004-03-04 07:49:46 51°13.92 2°52.702 10.2 336 5.3 102160 69
2004-03-04 07:49:51 51°13.91 2°52.675 11.3 332 5.3 102170 69
2004-03-04 07:49:56 51°13.899 2°52.649 10.6 339 5.3 102170 69
2004-03-04 07:50:02 51°13.886 2°52.617 11 335 5.3 102150 69
2004-03-04 07:50:06 51°13.878 2°52.595 10.8 334 5.3 102150 69
2004-03-04 07:50:11 51°13.867 2°52.568 11.5 337 5.3 102160 69
2004-03-04 07:50:16 51°13.857 2°52.541 12.4 336 5.3 102160 69
2004-03-04 07:50:20 51°13.849 2°52.52 11.2 333 5.3 102170 70
2004-03-04 07:50:26 51°13.836 2°52.487 11.1 333 5.3 102170 70
2004-03-04 07:50:30 51°13.828 2°52.466 10.4 334 5.3 102160 70
2004-03-04 07:50:36 51°13.815 2°52.433 10.8   5.3 102160 70
2004-03-04 07:50:42 51°13.803 2°52.401 10.4 338 5.3 102160 70
2004-03-04 07:50:46 51°13.794 2°52.38 11.2 334 5.3 102160 70
2004-03-04 07:50:51 51°13.784 2°52.353 11.9 332 5.3 102160 70
2004-03-04 07:50:56 51°13.773 2°52.326 11.1 333 5.3 102160 70
2004-03-04 07:51:02 51°13.76 2°52.294 12.1 333 5.3 102160 70
2004-03-04 07:51:06 51°13.752 2°52.272 11 338 5.3 102160 70
2004-03-04 07:51:12 51°13.739 2°52.24 11 334 5.3 102160 70
2004-03-04 07:51:16 51°13.73 2°52.218 11.3 337 5.3 102160 70
2004-03-04 07:51:22 51°13.718 2°52.186 10.2 331 5.3 102160 70
2004-03-04 07:51:26 51°13.709 2°52.164 10.7 337 5.3 102160 70
2004-03-04 07:51:30 51°13.701 2°52.143 10.6 334 5.3 102160 70
2004-03-04 07:51:36 51°13.688 2°52.11 10.8   5.3 102160 70
2004-03-04 07:51:42 51°13.675 2°52.078 10.3 333 5.3 102160 70
2004-03-04 07:51:46 51°13.667 2°52.056 10.8 331 5.3 102160 70
2004-03-04 07:51:52 51°13.655 2°52.024 9.9 337 5.3 102160 70
2004-03-04 07:51:56 51°13.646 2°52.002 9.6 337 5.3 102160 70
2004-03-04 07:52:00 51°13.637 2°51.981 9.9 333 5.3 102160 70
2004-03-04 07:52:06 51°13.625 2°51.948 10.1 334 5.3 102160 70
2004-03-04 07:52:11 51°13.614 2°51.921 10.5 339 5.2 102160 71
2004-03-04 07:52:16 51°13.603 2°51.894 10.7 335 5.2 102160 71
2004-03-04 07:52:22 51°13.59 2°51.862 10.4 336 5.2 102160 71
2004-03-04 07:52:26 51°13.582 2°51.84 10.7 332 5.2 102160 71
2004-03-04 07:52:31 51°13.571 2°51.813 10.2 334 5.2 102160 71
2004-03-04 07:52:36 51°13.561 2°51.786 9.9   5.2 102160 71
2004-03-04 07:52:42 51°13.548 2°51.754 10.3 338 5.2 102160 71
2004-03-04 07:52:46 51°13.54 2°51.732 11.7 331 5.2 102160 71
2004-03-04 07:52:51 51°13.53 2°51.705 10.1 336 5.2 102150 71
2004-03-04 07:52:56 51°13.519 2°51.678 10.2 338 5.2 102150 71
2004-03-04 07:53:02 51°13.507 2°51.645 11.6 336 5.2 102160 71
2004-03-04 07:53:07 51°13.496 2°51.618 11.5 333 5.2 102160 71
2004-03-04 07:53:11 51°13.488 2°51.596 10.9 333 5.2 102160 71
2004-03-04 07:53:16 51°13.477 2°51.569 11.8 333 5.2 102160 71
2004-03-04 07:53:22 51°13.465 2°51.536 11.8 332 5.2 102160 71
2004-03-04 07:53:26 51°13.456 2°51.515 10.8 334 5.2 102160 71
2004-03-04 07:53:32 51°13.444 2°51.482 11 336 5.2 102160 71
2004-03-04 07:53:36 51°13.435 2°51.46 10.4   5.2 102160 71
2004-03-04 07:53:41 51°13.425 2°51.433 10.8 337 5.2 102150 71
2004-03-04 07:53:46 51°13.414 2°51.406 10.4 337 5.2 102150 71
2004-03-04 07:53:50 51°13.406 2°51.385 10.8 334 5.2 102160 71
2004-03-04 07:53:56 51°13.393 2°51.353 10.4 334 5.2 102160 71
2004-03-04 07:54:02 51°13.381 2°51.32 11.2 336 5.2 102160 71
2004-03-04 07:54:07 51°13.37 2°51.293 10.8 332 5.2 102160 71
2004-03-04 07:54:11 51°13.362 2°51.271 11.3 333 5.2 102160 71
2004-03-04 07:54:16 51°13.351 2°51.244 10 335 5.2 102160 71
2004-03-04 07:54:22 51°13.339 2°51.212 10.7 335 5.2 102160 72
2004-03-04 07:54:26 51°13.33 2°51.19 11.1 338 5.2 102160 72
2004-03-04 07:54:31 51°13.32 2°51.163 11.8 333 5.2 102160 72
2004-03-04 07:54:36 51°13.309 2°51.136 11   5.2 102160 72
2004-03-04 07:54:40 51°13.301 2°51.114 10.6 334 5.2 102160 72
2004-03-04 07:54:47 51°13.286 2°51.076 10.7 337 5.2 102160 72
2004-03-04 07:54:52 51°13.275 2°51.049 11.3 331 5.2 102160 72
2004-03-04 07:54:56 51°13.267 2°51.027 10 332 5.2 102160 72
2004-03-04 07:55:02 51°13.254 2°50.995 10.4 337 5.1 102160 72
2004-03-04 07:55:06 51°13.246 2°50.973 10.5 334 5.1 102160 72
2004-03-04 07:55:10 51°13.238 2°50.952 10.6 337 5.1 102160 72
2004-03-04 07:55:16 51°13.225 2°50.92 10.4 337 5.1 102160 72
2004-03-04 07:55:22 51°13.212 2°50.887 10.7 336 5.1 102160 72
2004-03-04 07:55:26 51°13.204 2°50.865 11 333 5.1 102160 72
2004-03-04 07:55:31 51°13.193 2°50.839 11 337 5.1 102170 73
2004-03-04 07:55:36 51°13.183 2°50.811 10.8   5.1 102170 73
2004-03-04 07:55:42 51°13.17 2°50.779 10.8 334 5.1 102160 73
2004-03-04 07:55:46 51°13.162 2°50.757 10.2 338 5.1 102160 73
2004-03-04 07:55:51 51°13.151 2°50.73 10.6 334 5.1 102160 73
2004-03-04 07:55:56 51°13.141 2°50.703 10.9 335 5.1 102160 73
2004-03-04 07:56:02 51°13.128 2°50.67 10.2 335 5.1 102160 73
2004-03-04 07:56:06 51°13.119 2°50.649 9.7 335 5.1 102160 73
2004-03-04 07:56:11 51°13.109 2°50.622 10.7 334 5.1 102150 73
2004-03-04 07:56:16 51°13.098 2°50.595 11.1 336 5.1 102150 73
2004-03-04 07:56:22 51°13.086 2°50.562 10.7 336 5.1 102160 74
2004-03-04 07:56:27 51°13.075 2°50.535 10.9 337 5.1 102160 74
2004-03-04 07:56:31 51°13.067 2°50.513 11.2 337 5.1 102160 74
2004-03-04 07:56:36 51°13.056 2°50.486 11   5.1 102160 74
2004-03-04 07:56:40 51°13.048 2°50.464 11 329 5 102160 74
2004-03-04 07:56:47 51°13.033 2°50.426 10.4 332 5 102160 74
2004-03-04 07:56:51 51°13.025 2°50.404 10.7 334 5 102160 74
2004-03-04 07:56:56 51°13.015 2°50.377 11.2 332 5 102160 74
2004-03-04 07:57:02 51°13.002 2°50.345 11.6 334 5 102160 74
2004-03-04 07:57:06 51°12.994 2°50.323 10.9 334 5 102160 74
2004-03-04 07:57:11 51°12.983 2°50.295 11.2 334 5 102150 75
2004-03-04 07:57:16 51°12.973 2°50.268 11.8 333 5 102150 75
2004-03-04 07:57:22 51°12.96 2°50.236 11.5 334 5 102160 75
2004-03-04 07:57:26 51°12.952 2°50.214 11 335 5 102160 75
2004-03-04 07:57:31 51°12.941 2°50.187 10.4 337 5 102150 75
2004-03-04 07:57:36 51°12.931 2°50.16 10.7   5 102150 75
2004-03-04 07:57:42 51°12.918 2°50.127 10.8 334 4.9 102160 75
2004-03-04 07:57:46 51°12.91 2°50.105 10.5 336 4.9 102160 75
2004-03-04 07:57:50 51°12.902 2°50.083 10.3 334 4.9 102150 75
2004-03-04 07:57:56 51°12.889 2°50.051 10.6 332 4.9 102150 75
2004-03-04 07:58:00 51°12.881 2°50.029 10.5 333 4.9 102160 75
2004-03-04 07:58:07 51°12.866 2°49.991 10.8 333 4.9 102160 75
2004-03-04 07:58:12 51°12.856 2°49.964 11.2 333 4.9 102160 76
2004-03-04 07:58:16 51°12.847 2°49.942 11 334 4.9 102160 76
2004-03-04 07:58:20 51°12.839 2°49.921 10.6 332 4.9 102160 76
2004-03-04 07:58:26 51°12.826 2°49.888 10.7 335 4.9 102160 76
2004-03-04 07:58:30 51°12.818 2°49.866 10.9 337 4.9 102150 76
2004-03-04 07:58:36 51°12.806 2°49.834 11.1   4.9 102150 76
2004-03-04 07:58:42 51°12.793 2°49.801 10.6 334 4.8 102150 76
2004-03-04 07:58:47 51°12.783 2°49.774 11 338 4.8 102150 76
2004-03-04 07:58:52 51°12.772 2°49.747 10.1 335 4.8 102160 76
2004-03-04 07:58:56 51°12.764 2°49.725 10.4 337 4.8 102160 76
2004-03-04 07:59:00 51°12.755 2°49.703 10.8 337 4.8 102150 76
2004-03-04 07:59:06 51°12.743 2°49.671 10.5 336 4.8 102150 76
2004-03-04 07:59:10 51°12.735 2°49.649 11.3 335 4.8 102160 76
2004-03-04 07:59:16 51°12.722 2°49.616 10.6 338 4.8 102160 76
2004-03-04 07:59:22 51°12.71 2°49.584 10.9 333 4.8 102160 76
2004-03-04 07:59:26 51°12.702 2°49.562 11 336 4.8 102160 76
2004-03-04 07:59:30 51°12.693 2°49.54 11 337 4.8 102150 76
2004-03-04 07:59:36 51°12.681 2°49.508 10.7 337 4.8 102150 76
2004-03-04 07:59:42 51°12.668 2°49.475 10.6 337 4.8 102150 77
2004-03-04 07:59:46 51°12.66 2°49.454 10.4 335 4.8 102150 77
2004-03-04 07:59:51 51°12.649 2°49.427 11.2 334 4.8 102150 77
2004-03-04 07:59:56 51°12.639 2°49.4 11.2 334 4.8 102150 77
2004-03-04 08:00:02 51°12.626 2°49.368 10.9 339 4.8 102150 77
2004-03-04 08:00:06 51°12.618 2°49.346 10.9 335 4.8 102150 77
2004-03-04 08:00:11 51°12.607 2°49.319 10.8 338 4.8 102150 77
2004-03-04 08:00:16 51°12.597 2°49.292 11.3 332 4.8 102150 77
2004-03-04 08:00:20 51°12.589 2°49.27 10.1 336 4.8 102150 77
2004-03-04 08:00:26 51°12.576 2°49.238 10.7 333 4.8 102150 77
2004-03-04 08:00:32 51°12.564 2°49.206 10.7 336 4.8 102150 77
2004-03-04 08:00:36 51°12.556 2°49.184 10.8 332 4.8 102150 77
2004-03-04 08:00:42 51°12.543 2°49.152 12.1 330 4.8 102150 77
2004-03-04 08:00:46 51°12.535 2°49.131 11.9 329 4.8 102150 77
2004-03-04 08:00:51 51°12.525 2°49.104 11.1 335 4.8 102150 77
2004-03-04 08:00:56 51°12.515 2°49.077 11.1 335 4.8 102150 77
2004-03-04 08:01:02 51°12.502 2°49.045 11.4 335 4.7 102150 77
2004-03-04 08:01:07 51°12.492 2°49.018 11.3 333 4.7 102150 77
2004-03-04 08:01:10 51°12.486 2°49.002 12 330 4.8 102140 77
2004-03-04 08:01:16 51°12.473 2°48.97 11.4 332 4.8 102140 77
2004-03-04 08:01:22 51°12.46 2°48.938 11.4 330 4.8 102140 77
2004-03-04 08:01:26 51°12.452 2°48.917 11.3 333 4.8 102140 77
2004-03-04 08:01:31 51°12.442 2°48.89 11.1 334 4.7 102140 76
2004-03-04 08:01:36 51°12.432 2°48.863 11 334 4.7 102140 76
2004-03-04 08:01:42 51°12.419 2°48.831 10.5 331 4.8 102150 76
2004-03-04 08:01:46 51°12.411 2°48.809 12 338 4.8 102150 76
2004-03-04 08:01:50 51°12.403 2°48.788 11.3 335 4.8 102150 76
2004-03-04 08:01:56 51°12.391 2°48.755 11.4 332 4.8 102150 76
2004-03-04 08:02:02 51°12.378 2°48.723 11.8 334 4.8 102150 76
2004-03-04 08:02:06 51°12.37 2°48.702 11.8 332 4.8 102150 76
2004-03-04 08:02:11 51°12.36 2°48.675 11.5 332 4.8 102150 76
2004-03-04 08:02:16 51°12.349 2°48.648 10.7 332 4.8 102150 76
2004-03-04 08:02:20 51°12.341 2°48.627 11.3 333 4.8 102150 76
2004-03-04 08:02:26 51°12.328 2°48.595 11.3 335 4.8 102150 76
2004-03-04 08:02:31 51°12.318 2°48.568 11.7 334 4.8 102150 75
2004-03-04 08:02:36 51°12.307 2°48.542 12.4 337 4.8 102150 75
2004-03-04 08:02:41 51°12.297 2°48.515 11.9 333 4.8 102150 75
2004-03-04 08:02:46 51°12.286 2°48.488 11.8 337 4.8 102150 75
2004-03-04 08:02:52 51°12.274 2°48.456 12 335 4.8 102140 75
2004-03-04 08:02:56 51°12.266 2°48.435 11.3 336 4.8 102140 75
2004-03-04 08:03:02 51°12.253 2°48.403 11.1 333 4.8 102150 75
2004-03-04 08:03:06 51°12.245 2°48.381 10.7 337 4.8 102150 75
2004-03-04 08:03:11 51°12.235 2°48.354 10.7 336 4.8 102140 75
2004-03-04 08:03:14 51°12.228 2°48.339 11.3 338 4.8 102140 75
2004-03-04 08:03:22 51°12.212 2°48.296 12.6 338 4.8 102150 75
2004-03-04 08:03:26 51°12.203 2°48.274 11.3 344 4.8 102150 75
2004-03-04 08:03:32 51°12.191 2°48.242 11.5 333 4.8 102150 75
2004-03-04 08:03:36 51°12.183 2°48.221 11.1 333 4.8 102150 75
2004-03-04 08:03:42 51°12.171 2°48.189 10.5 335 4.8 102150 75
2004-03-04 08:03:46 51°12.162 2°48.167 11.2 336 4.8 102150 75
2004-03-04 08:03:51 51°12.152 2°48.14 12 336 4.8 102150 75
2004-03-04 08:03:56 51°12.142 2°48.113 11.6 334 4.8 102150 75
2004-03-04 08:04:02 51°12.129 2°48.081 11.9 337 4.8 102140 75
2004-03-04 08:04:07 51°12.119 2°48.054 10.9 333 4.8 102140 75
2004-03-04 08:04:11 51°12.111 2°48.033 11.4 333 4.8 102140 75
2004-03-04 08:04:16 51°12.1 2°48.006 11.9 331 4.8 102140 75
2004-03-04 08:04:20 51°12.092 2°47.985 10.7 334 4.9 102150 75
2004-03-04 08:04:26 51°12.08 2°47.953 11.6 330 4.9 102150 75
2004-03-04 08:04:31 51°12.069 2°47.926 11.5 329 4.9 102150 75
2004-03-04 08:04:36 51°12.059 2°47.899 11.2 333 4.9 102150 75
2004-03-04 08:04:42 51°12.046 2°47.867 10.8 337 4.9 102140 75
2004-03-04 08:04:46 51°12.038 2°47.845 11.1 337 4.9 102140 75
2004-03-04 08:04:51 51°12.027 2°47.819 11.6 337 4.9 102150 75
2004-03-04 08:04:56 51°12.017 2°47.792 11.1 333 4.9 102150 75
2004-03-04 08:05:02 51°12.004 2°47.76 12.5 330 4.9 102150 75
2004-03-04 08:05:06 51°11.996 2°47.738 12.5 333 4.9 102150 75
2004-03-04 08:05:11 51°11.985 2°47.712 11.2 338 4.9 102150 75
2004-03-04 08:05:16 51°11.975 2°47.685 10.9 338 4.9 102150 75
2004-03-04 08:05:20 51°11.966 2°47.664 10.8 340 4.9 102150 75
2004-03-04 08:05:26 51°11.954 2°47.632 11.1 334 4.9 102150 75
2004-03-04 08:05:31 51°11.943 2°47.605 10.9 336 4.9 102140 74
2004-03-04 08:05:36 51°11.932 2°47.579 11 331 4.9 102140 74
2004-03-04 08:05:42 51°11.92 2°47.547 11.1 336 4.9 102150 75
2004-03-04 08:05:46 51°11.911 2°47.526 11.2 335 4.9 102150 75
2004-03-04 08:05:52 51°11.898 2°47.494 10.8 333 4.9 102160 75
2004-03-04 08:05:56 51°11.89 2°47.473 10.8 336 4.9 102160 75
2004-03-04 08:06:00 51°11.882 2°47.452 12.4 330 4.9 102150 75
2004-03-04 08:06:06 51°11.869 2°47.419 12 329 4.9 102150 75
2004-03-04 08:06:10 51°11.861 2°47.398 11.1 332 4.9 102150 75
2004-03-04 08:06:16 51°11.848 2°47.366 11.8 329 4.9 102150 75
2004-03-04 08:06:22 51°11.836 2°47.334 11.8 330 4.9 102150 75
2004-03-04 08:06:26 51°11.828 2°47.312 11.2 333 4.9 102150 75
2004-03-04 08:06:31 51°11.817 2°47.286 11.7 331 4.9 102140 75
2004-03-04 08:06:36 51°11.806 2°47.259 12.1 330 4.9 102140 75
2004-03-04 08:06:40 51°11.798 2°47.238 11.6 330 4.9 102140 75
2004-03-04 08:06:47 51°11.783 2°47.2 11.7 332 4.9 102140 75
2004-03-04 08:06:51 51°11.775 2°47.179 11.2 331 4.9 102150 75
2004-03-04 08:06:56 51°11.765 2°47.152 11.4 328 4.9 102150 75
2004-03-04 08:07:00 51°11.756 2°47.131 11.3 333 4.9 102140 74
2004-03-04 08:07:06 51°11.744 2°47.098 11 334 4.9 102140 74
2004-03-04 08:07:11 51°11.733 2°47.072 10.9 332 4.9 102150 75
2004-03-04 08:07:16 51°11.723 2°47.045 10.8 333 4.9 102150 75
2004-03-04 08:07:21 51°11.713 2°47.018 11 336 4.9 102150 75
2004-03-04 08:07:26 51°11.703 2°46.991 10.4 335 4.9 102150 75
2004-03-04 08:07:31 51°11.692 2°46.964 11.4 336 4.9 102150 75
2004-03-04 08:07:36 51°11.682 2°46.938 10.6 333 4.9 102150 75
2004-03-04 08:07:42 51°11.669 2°46.906 10.9 335 4.9 102150 75
2004-03-04 08:07:46 51°11.661 2°46.885 10.6 336 4.9 102150 75
2004-03-04 08:07:51 51°11.65 2°46.858 11.1 333 4.8 102160 75
2004-03-04 08:07:56 51°11.64 2°46.832 10.8 335 4.8 102160 75
2004-03-04 08:08:01 51°11.629 2°46.805 11.4 333 4.9 102150 76
2004-03-04 08:08:07 51°11.616 2°46.774 11.6 335 4.9 102150 76
2004-03-04 08:08:11 51°11.608 2°46.752 10.9 336 4.8 102160 76
2004-03-04 08:08:16 51°11.598 2°46.726 11.2 333 4.8 102160 76
2004-03-04 08:08:22 51°11.586 2°46.693 11.2 333 4.8 102150 76
2004-03-04 08:08:26 51°11.577 2°46.672 11.5 330 4.8 102150 76
2004-03-04 08:08:31 51°11.567 2°46.645 11.6 331 4.8 102150 76
2004-03-04 08:08:36 51°11.557 2°46.619 11.2 331 4.8 102150 76
2004-03-04 08:08:42 51°11.544 2°46.587 10.6 330 4.8 102160 76
2004-03-04 08:08:46 51°11.536 2°46.566 11.1 332 4.8 102160 76
2004-03-04 08:08:51 51°11.526 2°46.539 10.9 333 4.8 102160 76
2004-03-04 08:08:56 51°11.515 2°46.513 11.3 333 4.8 102160 76
2004-03-04 08:09:00 51°11.507 2°46.491 11.6 330 4.8 102150 77
2004-03-04 08:09:06 51°11.495 2°46.459 10.9 336 4.8 102150 77
2004-03-04 08:09:12 51°11.483 2°46.427 10.9 329 4.8 102150 77
2004-03-04 08:09:16 51°11.475 2°46.406 11 330 4.8 102150 77
2004-03-04 08:09:22 51°11.462 2°46.374 10.9 334 4.8 102160 77
2004-03-04 08:09:26 51°11.454 2°46.353 11.1 330 4.8 102160 77
2004-03-04 08:09:31 51°11.444 2°46.326 11.4 331 4.7 102160 77
2004-03-04 08:09:36 51°11.434 2°46.3 11.4 334 4.7 102160 77
2004-03-04 08:09:42 51°11.422 2°46.268 11.1 335 4.7 102160 77
2004-03-04 08:09:46 51°11.413 2°46.247 11.6 332 4.7 102160 77
2004-03-04 08:09:51 51°11.403 2°46.22 11.2 332 4.7 102150 77
2004-03-04 08:09:56 51°11.393 2°46.194 10.5 337 4.7 102150 77
2004-03-04 08:10:00 51°11.385 2°46.173 10.3 336 4.7 102150 77
2004-03-04 08:10:06 51°11.373 2°46.14 10.6 334 4.7 102150 77
2004-03-04 08:10:12 51°11.362 2°46.108 10.5 334 4.7 102150 77
2004-03-04 08:10:16 51°11.354 2°46.087 11 336 4.7 102150 77
2004-03-04 08:10:20 51°11.347 2°46.064 10.8 330 4.7 102150 77
2004-03-04 08:10:27 51°11.335 2°46.025 10.5 329 4.7 102150 77
2004-03-04 08:10:30 51°11.331 2°46.008 9.9 328 4.7 102150 78
2004-03-04 08:10:36 51°11.322 2°45.974 9.6 327 4.7 102150 78
2004-03-04 08:10:42 51°11.313 2°45.939 10.7 327 4.7 102160 78
2004-03-04 08:10:46 51°11.308 2°45.916 10.9 325 4.7 102160 78
2004-03-04 08:10:51 51°11.301 2°45.887 10.7 330 4.7 102150 78
2004-03-04 08:10:56 51°11.294 2°45.858 10.6 327 4.7 102150 78
2004-03-04 08:11:00 51°11.289 2°45.835 9.9 332 4.7 102160 78
2004-03-04 08:11:06 51°11.28 2°45.8 10.4 328 4.7 102160 78
2004-03-04 08:11:10 51°11.275 2°45.777 9.1 329 4.6 102150 78
2004-03-04 08:11:16 51°11.266 2°45.742 10.2 329 4.6 102150 78
2004-03-04 08:11:22 51°11.258 2°45.707 9.9 329 4.7 102150 78
2004-03-04 08:11:26 51°11.253 2°45.684 10.2 328 4.7 102150 78
2004-03-04 08:11:31 51°11.246 2°45.654 10.3 331 4.6 102160 78
2004-03-04 08:11:36 51°11.24 2°45.625 10.6 328 4.6 102160 78
2004-03-04 08:11:42 51°11.232 2°45.589 10.4 328 4.6 102160 78
2004-03-04 08:11:46 51°11.227 2°45.566 10.3 330 4.6 102160 78
2004-03-04 08:11:50 51°11.222 2°45.542 9.9 333 4.6 102170 78
2004-03-04 08:11:56 51°11.214 2°45.507 10.4 331 4.6 102170 78
2004-03-04 08:12:02 51°11.206 2°45.472 10.2 332 4.6 102160 78
2004-03-04 08:12:06 51°11.2 2°45.448 10.5 327 4.6 102160 78
2004-03-04 08:12:12 51°11.192 2°45.413 9.5 330 4.6 102160 78
2004-03-04 08:12:16 51°11.187 2°45.389 10.2 329 4.6 102160 78
2004-03-04 08:12:20 51°11.182 2°45.366 10.3 328 4.6 102160 79
2004-03-04 08:12:26 51°11.174 2°45.33 9.7 330 4.6 102160 79
2004-03-04 08:12:30 51°11.169 2°45.307 9.9 327 4.6 102160 79
2004-03-04 08:12:36 51°11.161 2°45.272 9.5 328 4.6 102160 79
2004-03-04 08:12:40 51°11.156 2°45.248 9.5 332 4.6 102160 79
2004-03-04 08:12:46 51°11.148 2°45.213 9.8 331 4.6 102160 79
2004-03-04 08:12:51 51°11.141 2°45.183 9.5 333 4.6 102160 79
2004-03-04 08:12:56 51°11.135 2°45.153 9.9 329 4.6 102160 79
2004-03-04 08:13:02 51°11.127 2°45.118 10 330 4.6 102160 79
2004-03-04 08:13:06 51°11.122 2°45.094 10.2 328 4.6 102160 79
2004-03-04 08:13:12 51°11.114 2°45.059 9.9 331 4.6 102160 79
2004-03-04 08:13:16 51°11.109 2°45.035 10.4 329 4.6 102160 79
2004-03-04 08:13:22 51°11.1 2°45 10.3 332 4.6 102170 79
2004-03-04 08:13:26 51°11.095 2°44.976 10.2 334 4.6 102170 79
2004-03-04 08:13:30 51°11.09 2°44.953 9.5 333 4.6 102160 79
2004-03-04 08:13:36 51°11.082 2°44.917 10 330 4.6 102160 79
2004-03-04 08:13:40 51°11.077 2°44.894 10.1 330 4.6 102160 79
2004-03-04 08:13:46 51°11.069 2°44.858 10 329 4.6 102160 79
2004-03-04 08:13:51 51°11.062 2°44.829 9.7 334 4.6 102160 79
2004-03-04 08:13:56 51°11.055 2°44.799 10.1 331 4.6 102160 79
2004-03-04 08:14:02 51°11.047 2°44.764 10.1 331 4.6 102160 79
2004-03-04 08:14:06 51°11.042 2°44.74 9.7 333 4.6 102160 79
2004-03-04 08:14:10 51°11.036 2°44.717 10 333 4.5 102160 79
2004-03-04 08:14:16 51°11.028 2°44.681 9.5 333 4.5 102160 79
2004-03-04 08:14:20 51°11.023 2°44.658 9.3 334 4.5 102160 79
2004-03-04 08:14:26 51°11.014 2°44.622 9.7 331 4.5 102160 79
2004-03-04 08:14:30 51°11.009 2°44.599 10.2 328 4.5 102160 79
2004-03-04 08:14:36 51°11.001 2°44.564 9.8 333 4.5 102160 79
2004-03-04 08:14:40 51°10.996 2°44.54 9.9 334 4.5 102160 80
2004-03-04 08:14:46 51°10.988 2°44.504 10 330 4.5 102160 80
2004-03-04 08:14:52 51°10.98 2°44.469 10 335 4.5 102160 80
2004-03-04 08:14:56 51°10.975 2°44.445 10.2 332 4.5 102160 80
2004-03-04 08:15:02 51°10.967 2°44.41 10.1 330 4.5 102160 80
2004-03-04 08:15:06 51°10.962 2°44.386 9.9 326 4.5 102160 80
2004-03-04 08:15:11 51°10.955 2°44.357 9.9 331 4.5 102160 80
2004-03-04 08:15:16 51°10.949 2°44.327 10.2 329 4.5 102160 80
2004-03-04 08:15:20 51°10.944 2°44.304 10.2 331 4.5 102160 80
2004-03-04 08:15:26 51°10.936 2°44.268 10.9 330 4.5 102160 80
2004-03-04 08:15:30 51°10.93 2°44.245 9.4 330 4.5 102160 80
2004-03-04 08:15:36 51°10.922 2°44.21 9.7 330 4.5 102160 80
2004-03-04 08:15:40 51°10.917 2°44.186 9.5 330 4.5 102160 80
2004-03-04 08:15:46 51°10.909 2°44.151 9.2 328 4.5 102160 80
2004-03-04 08:15:51 51°10.902 2°44.121 9.6 333 4.5 102150 80
2004-03-04 08:15:56 51°10.895 2°44.092 9.9 329 4.5 102150 80
2004-03-04 08:16:00 51°10.89 2°44.069 9.6 333 4.5 102160 80
2004-03-04 08:16:06 51°10.882 2°44.034 9.5 336 4.5 102160 80
2004-03-04 08:16:11 51°10.875 2°44.004 9.9 332 4.5 102160 80
2004-03-04 08:16:16 51°10.869 2°43.975 9.5 333 4.5 102160 80
2004-03-04 08:16:22 51°10.861 2°43.939 9.7 333 4.4 102160 80
2004-03-04 08:16:26 51°10.855 2°43.916 9 333 4.4 102160 80
2004-03-04 08:16:30 51°10.85 2°43.892 9.3 328 4.5 102160 80
2004-03-04 08:16:36 51°10.842 2°43.857 9.6 332 4.5 102160 80
2004-03-04 08:16:42 51°10.834 2°43.822 9.6 333 4.5 102160 80
2004-03-04 08:16:46 51°10.828 2°43.799 10.2 333 4.5 102160 80
2004-03-04 08:16:52 51°10.82 2°43.763 9.2 333 4.5 102160 80
2004-03-04 08:16:56 51°10.815 2°43.74 10.3 330 4.5 102160 80
2004-03-04 08:17:02 51°10.807 2°43.705 9.6 331 4.4 102160 80
2004-03-04 08:17:06 51°10.801 2°43.681 9.7 331 4.4 102160 80
2004-03-04 08:17:10 51°10.796 2°43.658 9.6 327 4.4 102160 80
2004-03-04 08:17:16 51°10.788 2°43.623 9.9 330 4.4 102160 80
2004-03-04 08:17:20 51°10.782 2°43.599 9.9 328 4.4 102160 80
2004-03-04 08:17:26 51°10.774 2°43.564 9.6 328 4.4 102160 80
2004-03-04 08:17:30 51°10.769 2°43.54 9.8 331 4.4 102160 80
2004-03-04 08:17:36 51°10.761 2°43.505 9.5 328 4.4 102160 80
2004-03-04 08:17:42 51°10.753 2°43.47 10.4 324 4.4 102160 80
2004-03-04 08:17:46 51°10.748 2°43.446 9.5 328 4.4 102160 80
2004-03-04 08:17:51 51°10.741 2°43.417 9.6 331 4.4 102160 80
2004-03-04 08:17:56 51°10.735 2°43.387 9.4 331 4.4 102160 80
2004-03-04 08:18:00 51°10.73 2°43.363 9.3 330 4.4 102160 80
2004-03-04 08:18:07 51°10.72 2°43.322 9.1 331 4.4 102160 80
2004-03-04 08:18:11 51°10.715 2°43.299 9.6 327 4.4 102160 80
2004-03-04 08:18:16 51°10.708 2°43.269 9 328 4.4 102160 80
2004-03-04 08:18:20 51°10.703 2°43.246 9.2 327 4.4 102160 80
2004-03-04 08:18:26 51°10.695 2°43.211 9.2 329 4.4 102160 80
2004-03-04 08:18:31 51°10.688 2°43.181 9.2 326 4.4 102160 80
2004-03-04 08:18:36 51°10.681 2°43.152 9 333 4.4 102160 80
2004-03-04 08:18:42 51°10.674 2°43.116 9.2 330 4.4 102160 80
2004-03-04 08:18:46 51°10.668 2°43.092 9.8 325 4.4 102160 80
2004-03-04 08:18:52 51°10.66 2°43.057 9.3 330 4.4 102160 80
2004-03-04 08:18:56 51°10.655 2°43.034 9.2 332 4.4 102160 80
2004-03-04 08:19:02 51°10.647 2°42.998 9.3 330 4.4 102160 80
2004-03-04 08:19:06 51°10.641 2°42.975 8.6 330 4.4 102160 80
2004-03-04 08:19:10 51°10.636 2°42.951 8.8 329 4.4 102160 80
2004-03-04 08:19:16 51°10.628 2°42.916 9.2 331 4.4 102160 80
2004-03-04 08:19:22 51°10.62 2°42.881 9.1 331 4.4 102160 80
2004-03-04 08:19:26 51°10.615 2°42.857 8.6 329 4.4 102160 80
2004-03-04 08:19:31 51°10.609 2°42.828 9.1 329 4.4 102160 80
2004-03-04 08:19:36 51°10.602 2°42.798 8.9 328 4.4 102160 80
2004-03-04 08:19:42 51°10.594 2°42.763 9.1 326 4.4 102160 80
2004-03-04 08:19:46 51°10.589 2°42.739 9.4 331 4.4 102160 80
2004-03-04 08:19:51 51°10.583 2°42.71 9.6 332 4.4 102160 80
2004-03-04 08:19:56 51°10.576 2°42.68 8.8 326 4.4 102160 80
2004-03-04 08:20:00 51°10.571 2°42.657 8.5 329 4.4 102160 80
2004-03-04 08:20:06 51°10.563 2°42.622 9.2 326 4.4 102160 80
2004-03-04 08:20:10 51°10.558 2°42.598 9 328 4.4 102160 80
2004-03-04 08:20:16 51°10.551 2°42.563 9.3 327 4.4 102160 80
2004-03-04 08:20:22 51°10.543 2°42.528 9.5 328 4.4 102160 80
2004-03-04 08:20:26 51°10.538 2°42.504 10.1 324 4.4 102160 80
2004-03-04 08:20:31 51°10.531 2°42.475 9.4 324 4.4 102160 80
2004-03-04 08:20:36 51°10.525 2°42.445 9.6 330 4.4 102160 80
2004-03-04 08:20:42 51°10.517 2°42.41 9.3 328 4.4 102160 80
2004-03-04 08:20:46 51°10.512 2°42.387 9 324 4.4 102160 80
2004-03-04 08:20:50 51°10.507 2°42.363 9 329 4.4 102150 80
2004-03-04 08:20:56 51°10.499 2°42.328 9.7 329 4.4 102150 80
2004-03-04 08:21:02 51°10.491 2°42.293 9.2 330 4.4 102160 80
2004-03-04 08:21:06 51°10.485 2°42.27 8.9 327 4.4 102160 80
2004-03-04 08:21:11 51°10.479 2°42.241 9.1 329 4.4 102160 80
2004-03-04 08:21:16 51°10.472 2°42.212 9.3 329 4.4 102160 80
2004-03-04 08:21:22 51°10.464 2°42.177 9.5 328 4.4 102160 80
2004-03-04 08:21:26 51°10.459 2°42.153 9.6 330 4.4 102160 80
2004-03-04 08:21:30 51°10.454 2°42.13 10.1 328 4.4 102160 80
2004-03-04 08:21:36 51°10.446 2°42.095 9.6 327 4.4 102160 80
2004-03-04 08:21:41 51°10.44 2°42.066 9.6 326 4.4 102160 80
2004-03-04 08:21:46 51°10.433 2°42.036 9.6 328 4.4 102160 80
2004-03-04 08:21:52 51°10.426 2°42.001 9.9 325 4.4 102160 80
2004-03-04 08:21:56 51°10.421 2°41.978 9.5 326 4.4 102160 80
2004-03-04 08:22:02 51°10.413 2°41.943 9.4 327 4.4 102160 80
2004-03-04 08:22:06 51°10.408 2°41.919 9.8 330 4.4 102160 80
2004-03-04 08:22:12 51°10.401 2°41.884 9.3 331 4.4 102160 80
2004-03-04 08:22:16 51°10.395 2°41.861 9.3 330 4.4 102160 80
2004-03-04 08:22:22 51°10.388 2°41.826 9.7 329 4.4 102160 80
2004-03-04 08:22:26 51°10.383 2°41.802 8.9 328 4.4 102160 80
2004-03-04 08:22:31 51°10.376 2°41.773 9.6 327 4.4 102160 80
2004-03-04 08:22:36 51°10.37 2°41.744 9.9 326 4.4 102160 80
2004-03-04 08:22:40 51°10.365 2°41.721 9.6 325 4.4 102160 80
2004-03-04 08:22:46 51°10.357 2°41.685 9.5 324 4.4 102160 80
2004-03-04 08:22:50 51°10.352 2°41.662 9.9 322 4.4 102160 80
2004-03-04 08:22:56 51°10.344 2°41.627 8.9 326 4.4 102160 80
2004-03-04 08:23:02 51°10.336 2°41.592 9.2 324 4.4 102160 80
2004-03-04 08:23:07 51°10.33 2°41.563 9.9 325 4.4 102160 80
2004-03-04 08:23:11 51°10.325 2°41.54 9.5 323 4.4 102150 80
2004-03-04 08:23:16 51°10.318 2°41.511 9.9 323 4.4 102150 80
2004-03-04 08:23:20 51°10.313 2°41.487 10.2 322 4.4 102160 80
2004-03-04 08:23:26 51°10.306 2°41.452 10.3 322 4.4 102160 80
2004-03-04 08:23:32 51°10.299 2°41.417 9.6 323 4.4 102160 80
2004-03-04 08:23:36 51°10.295 2°41.393 8.8 328 4.4 102160 80
2004-03-04 08:23:40 51°10.29 2°41.369 9.3 327 4.4 102160 80
2004-03-04 08:23:47 51°10.283 2°41.328 10 327 4.4 102160 80
2004-03-04 08:23:50 51°10.28 2°41.31 9.7 323 4.4 102160 80
2004-03-04 08:23:56 51°10.273 2°41.274 10 326 4.4 102160 80
2004-03-04 08:24:02 51°10.266 2°41.239 8.9 327 4.4 102160 80
2004-03-04 08:24:06 51°10.262 2°41.215 9.4 325 4.4 102160 80
2004-03-04 08:24:12 51°10.255 2°41.18 9.3 325 4.5 102160 80
2004-03-04 08:24:16 51°10.251 2°41.156 9.6 324 4.5 102160 80
2004-03-04 08:24:20 51°10.246 2°41.133 9.2 322 4.5 102150 80
2004-03-04 08:24:26 51°10.24 2°41.097 9.7 320 4.5 102150 80
2004-03-04 08:24:30 51°10.236 2°41.074 8.9 321 4.4 102150 79
2004-03-04 08:24:36 51°10.229 2°41.039 9.1 325 4.4 102150 79
2004-03-04 08:24:42 51°10.223 2°41.003 9.9 323 4.5 102160 79
2004-03-04 08:24:46 51°10.219 2°40.98 9.8 321 4.5 102160 79
2004-03-04 08:24:50 51°10.215 2°40.956 9.4 323 4.5 102150 79
2004-03-04 08:24:56 51°10.208 2°40.92 9.9 324 4.5 102150 79
2004-03-04 08:25:00 51°10.204 2°40.897 9.4 328 4.5 102160 79
2004-03-04 08:25:06 51°10.198 2°40.862 8.9 326 4.5 102160 79
2004-03-04 08:25:10 51°10.194 2°40.838 9.5 327 4.5 102150 79
2004-03-04 08:25:16 51°10.187 2°40.803 8.9 327 4.5 102150 79
2004-03-04 08:25:22 51°10.18 2°40.768 9.3 330 4.5 102160 79
2004-03-04 08:25:24 51°10.178 2°40.756 9.6 324 4.5 102160 79
2004-03-04 08:25:31 51°10.171 2°40.715 9.9 325 4.5 102160 80
2004-03-04 08:25:36 51°10.166 2°40.686 9.9 326 4.5 102160 80
2004-03-04 08:25:42 51°10.159 2°40.65 9.7 326 4.5 102150 80
2004-03-04 08:25:46 51°10.155 2°40.627 9.2 326 4.5 102150 80
2004-03-04 08:25:52 51°10.149 2°40.592 9.5 325 4.5 102160 80
2004-03-04 08:25:56 51°10.144 2°40.568 9.4 322 4.5 102160 80
2004-03-04 08:26:00 51°10.14 2°40.545 9.5 327 4.5 102150 80
2004-03-04 08:26:06 51°10.133 2°40.51 9.5 327 4.5 102150 80
2004-03-04 08:26:11 51°10.128 2°40.48 9.5 328 4.5 102160 80
2004-03-04 08:26:16 51°10.123 2°40.451 9.6 324 4.5 102160 80
2004-03-04 08:26:22 51°10.117 2°40.416 8.6 326 4.5 102150 80
2004-03-04 08:26:26 51°10.112 2°40.392 9.1 326 4.5 102150 80
2004-03-04 08:26:30 51°10.108 2°40.369 9.5 324 4.5 102150 80
2004-03-04 08:26:36 51°10.101 2°40.334 8.9 321 4.5 102150 80
2004-03-04 08:26:40 51°10.097 2°40.311 8.8 326 4.5 102160 80
2004-03-04 08:26:46 51°10.091 2°40.275 9.1 330 4.5 102160 80
2004-03-04 08:26:50 51°10.087 2°40.252 9.3 321 4.5 102160 80
2004-03-04 08:26:56 51°10.08 2°40.217 9 323 4.5 102160 80
2004-03-04 08:27:02 51°10.074 2°40.182 9 323 4.5 102160 80
2004-03-04 08:27:06 51°10.069 2°40.158 9.3 323 4.5 102160 80
2004-03-04 08:27:11 51°10.064 2°40.129 8.5 327 4.5 102150 80
2004-03-04 08:27:16 51°10.058 2°40.1 9.4 327 4.5 102150 80
2004-03-04 08:27:22 51°10.052 2°40.065 9.3 325 4.5 102160 80
2004-03-04 08:27:26 51°10.048 2°40.041 8.8 326 4.5 102160 80
2004-03-04 08:27:31 51°10.042 2°40.012 9.3 328 4.5 102150 80
2004-03-04 08:27:36 51°10.037 2°39.983 8.7 332 4.5 102150 80
2004-03-04 08:27:42 51°10.031 2°39.948 9.3 322 4.5 102150 80
2004-03-04 08:27:47 51°10.025 2°39.918 8.7 327 4.5 102150 80
2004-03-04 08:27:51 51°10.021 2°39.895 8.9 326 4.5 102160 80
2004-03-04 08:27:56 51°10.016 2°39.866 9.3 324 4.5 102160 80
2004-03-04 08:28:00 51°10.012 2°39.843 9.1 321 4.5 102160 80
2004-03-04 08:28:06 51°10.006 2°39.807 8.8 324 4.5 102160 80
2004-03-04 08:28:10 51°10.002 2°39.784 9.2 327 4.5 102160 80
2004-03-04 08:28:16 51°9.996 2°39.749 8.8 327 4.5 102160 80
2004-03-04 08:28:22 51°9.99 2°39.713 8.5 326 4.5 102150 80
2004-03-04 08:28:26 51°9.986 2°39.69 8.6 325 4.5 102150 80
2004-03-04 08:28:31 51°9.981 2°39.66 8.4 327 4.5 102150 80
2004-03-04 08:28:36 51°9.976 2°39.631 8.5 319 4.5 102150 80
2004-03-04 08:28:41 51°9.971 2°39.601 8.8 320 4.5 102150 80
2004-03-04 08:28:47 51°9.965 2°39.566 8.9 322 4.5 102150 80
2004-03-04 08:28:52 51°9.961 2°39.537 9 324 4.5 102160 80
2004-03-04 08:28:56 51°9.957 2°39.513 8.4 325 4.5 102160 80
2004-03-04 08:29:02 51°9.951 2°39.478 8.6 324 4.5 102160 80
2004-03-04 08:29:06 51°9.947 2°39.454 9.1 320 4.5 102160 80
2004-03-04 08:29:11 51°9.942 2°39.425 8.7 320 4.5 102150 80
2004-03-04 08:29:16 51°9.937 2°39.395 8.5 323 4.5 102150 80
2004-03-04 08:29:22 51°9.932 2°39.36 9.2 326 4.5 102160 80
2004-03-04 08:29:26 51°9.928 2°39.336 9.1 328 4.5 102160 80
2004-03-04 08:29:30 51°9.924 2°39.313 9 321 4.5 102160 80
2004-03-04 08:29:36 51°9.918 2°39.278 9.1 323 4.5 102160 80
2004-03-04 08:29:42 51°9.912 2°39.242 8.9 324 4.5 102160 80
2004-03-04 08:29:46 51°9.908 2°39.219 8.3 325 4.5 102160 80
2004-03-04 08:29:51 51°9.903 2°39.19 8.6 323 4.5 102160 80
2004-03-04 08:29:56 51°9.898 2°39.16 9.3 324 4.5 102160 80
2004-03-04 08:30:00 51°9.895 2°39.137 9.1 322 4.5 102160 80
2004-03-04 08:30:06 51°9.889 2°39.102 8.8 322 4.5 102160 80
2004-03-04 08:30:11 51°9.884 2°39.072 8.9 321 4.5 102160 80
2004-03-04 08:30:16 51°9.879 2°39.043 8.7 324 4.5 102160 80
2004-03-04 08:30:20 51°9.875 2°39.019 8.8 323 4.5 102150 80
2004-03-04 08:30:26 51°9.869 2°38.984 8.6 328 4.5 102150 80
2004-03-04 08:30:32 51°9.864 2°38.949 8.6 325 4.5 102160 80
2004-03-04 08:30:36 51°9.86 2°38.925 8.5 329 4.5 102160 80
2004-03-04 08:30:42 51°9.854 2°38.89 9.2 330 4.5 102150 80
2004-03-04 08:30:46 51°9.85 2°38.867 8.3 330 4.5 102150 80
2004-03-04 08:30:51 51°9.845 2°38.837 9.1 326 4.5 102160 80
2004-03-04 08:30:56 51°9.84 2°38.808 8.2 326 4.5 102160 80
2004-03-04 08:31:02 51°9.835 2°38.773 8.2 324 4.5 102160 80
2004-03-04 08:31:06 51°9.831 2°38.749 8.3 325 4.5 102160 80
2004-03-04 08:31:11 51°9.826 2°38.72 8.7 324 4.5 102160 80
2004-03-04 08:31:16 51°9.822 2°38.691 8.5 327 4.5 102160 80
2004-03-04 08:31:22 51°9.816 2°38.655 8.7 323 4.5 102160 80
2004-03-04 08:31:26 51°9.812 2°38.632 8.9 328 4.5 102160 80
2004-03-04 08:31:31 51°9.807 2°38.603 9.1 323 4.5 102160 80
2004-03-04 08:31:36 51°9.802 2°38.573 9.2 325 4.5 102160 80
2004-03-04 08:31:41 51°9.797 2°38.544 8.6 323 4.5 102150 80
2004-03-04 08:31:47 51°9.792 2°38.508 8.2 323 4.5 102150 80
2004-03-04 08:31:52 51°9.787 2°38.479 7.9 325 4.5 102160 80
2004-03-04 08:31:56 51°9.783 2°38.456 8.7 324 4.5 102160 80
2004-03-04 08:32:02 51°9.777 2°38.421 8.9 326 4.5 102160 80
2004-03-04 08:32:06 51°9.774 2°38.397 8.5 324 4.5 102160 80
2004-03-04 08:32:11 51°9.768 2°38.368 7.8 330 4.5 102150 80
2004-03-04 08:32:16 51°9.764 2°38.338 8.9 326 4.5 102150 80
2004-03-04 08:32:22 51°9.758 2°38.303 8.1 324 4.5 102160 80
2004-03-04 08:32:26 51°9.754 2°38.28 8.9 326 4.5 102160 80
2004-03-04 08:32:31 51°9.749 2°38.25 8.1 327 4.5 102150 80
2004-03-04 08:32:36 51°9.744 2°38.221 8.2 328 4.5 102150 80
2004-03-04 08:32:41 51°9.739 2°38.192 8.8 323 4.5 102160 80
2004-03-04 08:32:46 51°9.735 2°38.162 8.3 327 4.5 102160 80
2004-03-04 08:32:51 51°9.73 2°38.133 8.6 327 4.5 102160 80
2004-03-04 08:32:56 51°9.725 2°38.103 9 328 4.5 102160 80
2004-03-04 08:33:02 51°9.719 2°38.068 8.1 325 4.5 102160 80
2004-03-04 08:33:06 51°9.715 2°38.045 8.6 324 4.5 102160 80
2004-03-04 08:33:11 51°9.71 2°38.015 8.2 325 4.5 102160 80
2004-03-04 08:33:16 51°9.705 2°37.986 8.3 324 4.5 102160 80
2004-03-04 08:33:22 51°9.699 2°37.951 8 328 4.5 102150 80
2004-03-04 08:33:26 51°9.696 2°37.927 8.5 328 4.5 102150 80
2004-03-04 08:33:31 51°9.691 2°37.898 8.7 324 4.5 102150 80
2004-03-04 08:33:36 51°9.687 2°37.868 8.1 327 4.5 102150 80
2004-03-04 08:33:41 51°9.682 2°37.839 8.2 328 4.5 102160 80
2004-03-04 08:33:46 51°9.677 2°37.81 8.6 322 4.5 102160 80
2004-03-04 08:33:52 51°9.671 2°37.774 8 327 4.5 102150 80
2004-03-04 08:33:56 51°9.668 2°37.751 8.2 326 4.5 102150 80
2004-03-04 08:34:02 51°9.662 2°37.715 8 326 4.5 102150 80
2004-03-04 08:34:06 51°9.658 2°37.692 8.6 326 4.5 102150 80
2004-03-04 08:34:12 51°9.653 2°37.656 8.3 325 4.5 102150 80
2004-03-04 08:34:16 51°9.649 2°37.633 8.2 327 4.5 102150 80
2004-03-04 08:34:20 51°9.645 2°37.609 8.3 326 4.5 102150 80
2004-03-04 08:34:27 51°9.639 2°37.568 8.4 323 4.5 102150 80
2004-03-04 08:34:31 51°9.635 2°37.544 7.9 325 4.5 102150 80
2004-03-04 08:34:36 51°9.631 2°37.514 7.7 325 4.5 102150 80
2004-03-04 08:34:40 51°9.628 2°37.49 7.7 320 4.5 102160 80
2004-03-04 08:34:46 51°9.625 2°37.456 7 319 4.5 102160 80
2004-03-04 08:34:51 51°9.623 2°37.429 6.4 318 4.5 102150 80
2004-03-04 08:34:56 51°9.62 2°37.405 6.7 228 4.5 102150 80
2004-03-04 08:35:02 51°9.619 2°37.377 6.2 307 4.5 102150 80
2004-03-04 08:35:06 51°9.618 2°37.36 5.5 303 4.5 102150 80
2004-03-04 08:35:11 51°9.618 2°37.341 5.1 298 4.5 102160 80
2004-03-04 08:35:16 51°9.618 2°37.323 4.6 294 4.5 102160 80
2004-03-04 08:35:22 51°9.619 2°37.302 4.3 289 4.5 102160 80
2004-03-04 08:35:26 51°9.62 2°37.29 4.2 281 4.5 102160 80
2004-03-04 08:35:30 51°9.621 2°37.278 4.4 267 4.5 102170 80
2004-03-04 08:35:36 51°9.624 2°37.261 4.5 266 4.5 102170 80
2004-03-04 08:35:40 51°9.625 2°37.25 5.2 265 4.5 102170 80
2004-03-04 08:35:46 51°9.628 2°37.235 4.6 264 4.5 102170 80
2004-03-04 08:35:52 51°9.63 2°37.221 4.5 263 4.5 102170 80
2004-03-04 08:35:56 51°9.631 2°37.212 4.4 270 4.5 102170 80
2004-03-04 08:36:02 51°9.632 2°37.199 4.4 278 4.5 102170 80
2004-03-04 08:36:06 51°9.633 2°37.191 4.7 280 4.5 102170 80
2004-03-04 08:36:11 51°9.633 2°37.181 4.5 282 4.5 102180 80
2004-03-04 08:36:16 51°9.632 2°37.171 4.8 289 4.5 102180 80
2004-03-04 08:36:20 51°9.631 2°37.164 3.3 295 4.5 102180 80
2004-03-04 08:36:27 51°9.628 2°37.152 5.6 294 4.5 102180 80
2004-03-04 08:36:31 51°9.627 2°37.146 5.7 301 4.5 102170 80
2004-03-04 08:36:36 51°9.624 2°37.139 5.5 300 4.5 102170 80
2004-03-04 08:36:41 51°9.621 2°37.133 5.2 303 4.5 102170 81
2004-03-04 08:36:46 51°9.619 2°37.127 5.2 304 4.5 102170 81
2004-03-04 08:36:51 51°9.616 2°37.121 5.5 302 4.5 102170 81
2004-03-04 08:36:56 51°9.613 2°37.116 5.1 304 4.5 102170 81
2004-03-04 08:37:02 51°9.61 2°37.11 5.5 305 4.5 102160 81
2004-03-04 08:37:06 51°9.608 2°37.106 6 302 4.5 102160 81
2004-03-04 08:37:11 51°9.606 2°37.101 5.5 304 4.5 102170 81
2004-03-04 08:37:16 51°9.603 2°37.097 5.4 304 4.5 102170 81
2004-03-04 08:37:22 51°9.6 2°37.092 5.7 300 4.5 102160 81
2004-03-04 08:37:26 51°9.598 2°37.088 5.2 303 4.5 102160 81
2004-03-04 08:37:31 51°9.596 2°37.084 5.4 303 4.5 102160 81
2004-03-04 08:37:36 51°9.593 2°37.08 5.5 302 4.5 102160 81
2004-03-04 08:37:42 51°9.59 2°37.076 6.1 302 4.5 102160 81
2004-03-04 08:37:46 51°9.588 2°37.073 5.8 303 4.5 102160 81
2004-03-04 08:37:52 51°9.586 2°37.069 5.9 302 4.5 102160 81
2004-03-04 08:37:56 51°9.584 2°37.067 5.9 303 4.5 102160 81
2004-03-04 08:38:02 51°9.581 2°37.063 5.6 307 4.5 102160 81
2004-03-04 08:38:06 51°9.579 2°37.06 5.6 306 4.5 102160 81
2004-03-04 08:38:12 51°9.577 2°37.057 5.5 305 4.5 102160 81
2004-03-04 08:38:16 51°9.575 2°37.055 5.5 303 4.5 102160 81
2004-03-04 08:38:22 51°9.573 2°37.051 5.4 305 4.5 102160 81
2004-03-04 08:38:26 51°9.571 2°37.049 5.6 309 4.5 102160 81
2004-03-04 08:38:30 51°9.57 2°37.047 5.3 304 4.5 102160 81
2004-03-04 08:38:36 51°9.567 2°37.044 4.9 301 4.5 102160 81
2004-03-04 08:38:42 51°9.565 2°37.041 5.1 306 4.5 102160 81
2004-03-04 08:38:46 51°9.564 2°37.039 5.2 306 4.5 102160 81
2004-03-04 08:38:51 51°9.562 2°37.037 5.5 305 4.5 102160 81
2004-03-04 08:38:56 51°9.56 2°37.034 4.9 307 4.5 102160 81
2004-03-04 08:39:02 51°9.558 2°37.032 5.7 306 4.5 102160 81
2004-03-04 08:39:06 51°9.557 2°37.03 5.7 306 4.5 102160 81
2004-03-04 08:39:11 51°9.555 2°37.028 5.6 300 4.5 102160 81
2004-03-04 08:39:16 51°9.553 2°37.026 5.4 300 4.5 102160 81
2004-03-04 08:39:22 51°9.551 2°37.024 6 305 4.5 102160 81
2004-03-04 08:39:26 51°9.55 2°37.022 5.5 305 4.5 102160 81
2004-03-04 08:39:30 51°9.549 2°37.021 5.5 302 4.5 102160 81
2004-03-04 08:39:36 51°9.547 2°37.019 5.9 306 4.5 102160 81
2004-03-04 08:39:40 51°9.546 2°37.017 5.1 304 4.5 102160 81
2004-03-04 08:39:47 51°9.544 2°37.015 5.1 307 4.5 102160 81
2004-03-04 08:39:51 51°9.543 2°37.013 5.9 307 4.5 102160 81
2004-03-04 08:39:56 51°9.541 2°37.011 5.9 306 4.5 102160 81
2004-03-04 08:40:00 51°9.539 2°37.009 5.8 301 4.5 102160 81
2004-03-04 08:40:06 51°9.536 2°37.006 5.3 305 4.5 102160 81
2004-03-04 08:40:11 51°9.533 2°37.002 5.2 302 4.5 102160 81
2004-03-04 08:40:16 51°9.53 2°36.999 5.7 305 4.5 102160 81
2004-03-04 08:40:20 51°9.527 2°36.995 5.5 304 4.5 102150 81
2004-03-04 08:40:26 51°9.524 2°36.99 5.6 300 4.5 102150 81
2004-03-04 08:40:31 51°9.521 2°36.985 5.2 300 4.5 102150 81
2004-03-04 08:40:36 51°9.517 2°36.98 5.8 294 4.5 102150 81
2004-03-04 08:40:42 51°9.514 2°36.973 5.5 294 4.5 102150 81
2004-03-04 08:40:47 51°9.51 2°36.967 5.6 295 4.5 102150 81
2004-03-04 08:40:50 51°9.509 2°36.963 5.2 295 4.5 102160 81
2004-03-04 08:40:56 51°9.505 2°36.955 5.4 291 4.5 102160 81
2004-03-04 08:41:02 51°9.501 2°36.946 5.6 291 4.5 102150 81
2004-03-04 08:41:07 51°9.498 2°36.939 5.6 292 4.5 102150 81
2004-03-04 08:41:11 51°9.496 2°36.933 5.5 288 4.5 102150 81
2004-03-04 08:41:16 51°9.493 2°36.925 4.8 288 4.5 102150 81
2004-03-04 08:41:22 51°9.49 2°36.916 5.1 291 4.5 102150 81
2004-03-04 08:41:26 51°9.487 2°36.909 5.7 290 4.5 102150 81
2004-03-04 08:41:31 51°9.484 2°36.901 5.2 290 4.5 102150 81
2004-03-04 08:41:36 51°9.482 2°36.892 5.3 288 4.5 102150 81
2004-03-04 08:41:42 51°9.478 2°36.882 4.8 288 4.5 102150 81
2004-03-04 08:41:46 51°9.476 2°36.876 5.1 291 4.5 102150 81
2004-03-04 08:41:52 51°9.473 2°36.866 5.2 294 4.5 102150 81
2004-03-04 08:41:56 51°9.471 2°36.859 4.9 288 4.5 102150 81
2004-03-04 08:42:02 51°9.468 2°36.85 4.5 289 4.5 102150 81
2004-03-04 08:42:06 51°9.466 2°36.843 5.2 287 4.5 102150 81
2004-03-04 08:42:10 51°9.463 2°36.837 4.8 289 4.5 102160 81
2004-03-04 08:42:16 51°9.461 2°36.828 5.1 290 4.5 102160 81
2004-03-04 08:42:22 51°9.458 2°36.819 5.2 287 4.5 102150 81
2004-03-04 08:42:26 51°9.456 2°36.813 5 287 4.5 102150 81
2004-03-04 08:42:31 51°9.453 2°36.806 4.6 290 4.5 102150 81
2004-03-04 08:42:36 51°9.451 2°36.799 4.9 288 4.5 102150 81
2004-03-04 08:42:42 51°9.448 2°36.79 4.9 285 4.5 102150 81
2004-03-04 08:42:46 51°9.446 2°36.785 4.8 284 4.5 102150 81
2004-03-04 08:42:52 51°9.443 2°36.777 5.1 287 4.5 102150 81
2004-03-04 08:42:56 51°9.441 2°36.772 5 286 4.5 102150 81
2004-03-04 08:43:02 51°9.438 2°36.764 5.1 286 4.5 102140 81
2004-03-04 08:43:06 51°9.436 2°36.759 4.7 284 4.5 102140 81
2004-03-04 08:43:11 51°9.433 2°36.752 5.1 288 4.5 102150 81
2004-03-04 08:43:16 51°9.431 2°36.746 5 285 4.5 102150 81
2004-03-04 08:43:22 51°9.428 2°36.738 5 287 4.5 102150 81
2004-03-04 08:43:26 51°9.425 2°36.733 4.7 283 4.5 102150 81
2004-03-04 08:43:31 51°9.423 2°36.727 5 288 4.5 102140 81
2004-03-04 08:43:36 51°9.42 2°36.72 4.7 285 4.5 102140 81
2004-03-04 08:43:41 51°9.418 2°36.713 5.3 285 4.5 102140 81
2004-03-04 08:43:46 51°9.416 2°36.707 4.7 278 4.5 102140 81
2004-03-04 08:43:51 51°9.413 2°36.7 4.5 284 4.5 102140 82
2004-03-04 08:43:56 51°9.411 2°36.694 4.8 281 4.5 102140 82
2004-03-04 08:44:02 51°9.408 2°36.686 4.6 280 4.5 102140 82
2004-03-04 08:44:06 51°9.406 2°36.681 5.1 281 4.5 102140 82
2004-03-04 08:44:10 51°9.404 2°36.676 4.7 285 4.5 102140 82
2004-03-04 08:44:16 51°9.402 2°36.668 5.4 283 4.5 102140 82
2004-03-04 08:44:22 51°9.399 2°36.66 4.7 284 4.5 102140 82
2004-03-04 08:44:26 51°9.397 2°36.655 5.1 280 4.5 102140 82
2004-03-04 08:44:30 51°9.396 2°36.649 5 282 4.5 102140 82
2004-03-04 08:44:36 51°9.394 2°36.641 5.1 281 4.5 102140 82
2004-03-04 08:44:42 51°9.392 2°36.633 4.8 278 4.5 102140 82
2004-03-04 08:44:46 51°9.39 2°36.628 4.5 279 4.5 102140 82
2004-03-04 08:44:51 51°9.388 2°36.621 5.5 270 4.5 102140 82
2004-03-04 08:44:56 51°9.387 2°36.614 5.8 270 4.5 102140 82
2004-03-04 08:45:02 51°9.385 2°36.606 4.4 275 4.5 102140 82
2004-03-04 08:45:06 51°9.383 2°36.601 4.4 275 4.5 102140 82
2004-03-04 08:45:12 51°9.381 2°36.593 4.6 270 4.5 102140 82
2004-03-04 08:45:16 51°9.38 2°36.587 4.7 273 4.5 102140 82
2004-03-04 08:45:22 51°9.378 2°36.579 4.7 273 4.5 102140 82
2004-03-04 08:45:26 51°9.377 2°36.574 5 276 4.5 102140 82
2004-03-04 08:45:32 51°9.375 2°36.565 5.2 273 4.5 102140 82
2004-03-04 08:45:36 51°9.374 2°36.56 4.9   4.5 102140 82
2004-03-04 08:45:40 51°9.373 2°36.554 4.8 275 4.5 102140 82
2004-03-04 08:45:47 51°9.37 2°36.544 5 278 4.5 102140 82
2004-03-04 08:45:51 51°9.369 2°36.538 5 274 4.5 102140 82
2004-03-04 08:45:56 51°9.368 2°36.531 4.6 273 4.5 102140 82
2004-03-04 08:46:02 51°9.366 2°36.522 4.5 274 4.5 102140 82
2004-03-04 08:46:06 51°9.364 2°36.517 4.6 274 4.5 102140 82
2004-03-04 08:46:10 51°9.363 2°36.511 4.5 275 4.5 102130 82
2004-03-04 08:46:16 51°9.361 2°36.502 4.9 273 4.5 102130 82
2004-03-04 08:46:20 51°9.36 2°36.496 4.6 274 4.5 102140 82
2004-03-04 08:46:26 51°9.358 2°36.488 4.5 272 4.5 102140 82
2004-03-04 08:46:31 51°9.356 2°36.481 4.2 274 4.5 102130 82
2004-03-04 08:46:36 51°9.355 2°36.474 4.7 273 4.5 102130 82
2004-03-04 08:46:42 51°9.353 2°36.465 4.7 275 4.5 102140 82
2004-03-04 08:46:46 51°9.352 2°36.46 5.3 271 4.5 102140 82
2004-03-04 08:46:50 51°9.351 2°36.454 4.3 272 4.5 102140 82
2004-03-04 08:46:56 51°9.349 2°36.446 4.8 274 4.5 102140 82
2004-03-04 08:47:02 51°9.347 2°36.438 4.5 274 4.5 102130 82
2004-03-04 08:47:06 51°9.346 2°36.432 5.2 273 4.5 102130 82
2004-03-04 08:47:10 51°9.345 2°36.427 4.9 273 4.5 102140 82
2004-03-04 08:47:16 51°9.343 2°36.419 5.3 274 4.5 102140 82
2004-03-04 08:47:22 51°9.341 2°36.411 5.1 273 4.5 102140 82
2004-03-04 08:47:26 51°9.34 2°36.406 5.2 276 4.5 102140 82
2004-03-04 08:47:31 51°9.339 2°36.399 5.2 273 4.5 102130 82
2004-03-04 08:47:36 51°9.337 2°36.393 4.9 274 4.5 102130 82
2004-03-04 08:47:40 51°9.336 2°36.388 4.9 274 4.5 102130 82
2004-03-04 08:47:46 51°9.334 2°36.38 4.5 278 4.5 102130 82
2004-03-04 08:47:51 51°9.332 2°36.374 4.4 275 4.5 102140 82
2004-03-04 08:47:56 51°9.33 2°36.367 4.9 272 4.5 102140 82
2004-03-04 08:48:02 51°9.328 2°36.36 4.8 277 4.5 102130 82
2004-03-04 08:48:06 51°9.327 2°36.355 4.6 281 4.5 102130 82
2004-03-04 08:48:11 51°9.325 2°36.349 4.8 277 4.5 102130 82
2004-03-04 08:48:16 51°9.323 2°36.343 4.4 275 4.5 102130 82
2004-03-04 08:48:22 51°9.321 2°36.335 4.9 278 4.5 102130 83
2004-03-04 08:48:27 51°9.32 2°36.329 4.8 278 4.5 102130 83
2004-03-04 08:48:30 51°9.319 2°36.325 5.4 274 4.5 102130 83
2004-03-04 08:48:36 51°9.317 2°36.318 5 275 4.5 102130 83
2004-03-04 08:48:42 51°9.315 2°36.311 4.9 271 4.5 102130 83
2004-03-04 08:48:46 51°9.313 2°36.306 4.7 273 4.5 102130 83
2004-03-04 08:48:50 51°9.312 2°36.302 5.3 269 4.5 102130 83
2004-03-04 08:48:56 51°9.31 2°36.294 5.1 281 4.5 102130 83
2004-03-04 08:49:02 51°9.308 2°36.287 5.3 274 4.5 102130 83
2004-03-04 08:49:06 51°9.306 2°36.282 4.8 279 4.5 102130 83
2004-03-04 08:49:11 51°9.305 2°36.276 5.2 275 4.5 102130 83
2004-03-04 08:49:16 51°9.303 2°36.269 5.4 274 4.5 102130 83
2004-03-04 08:49:22 51°9.301 2°36.262 4.9 270 4.5 102130 83
2004-03-04 08:49:26 51°9.3 2°36.257 4.9 273 4.5 102130 83
2004-03-04 08:49:31 51°9.298 2°36.251 4.9 275 4.5 102130 83
2004-03-04 08:49:36 51°9.297 2°36.245 5.4 273 4.5 102130 83
2004-03-04 08:49:42 51°9.295 2°36.237 5.3 273 4.5 102130 83
2004-03-04 08:49:47 51°9.293 2°36.231 5.5 272 4.5 102130 83
2004-03-04 08:49:52 51°9.292 2°36.225 5.7 276 4.5 102130 83
2004-03-04 08:49:56 51°9.29 2°36.22 5.3 268 4.5 102130 83
2004-03-04 08:50:02 51°9.289 2°36.213 5.2 271 4.5 102120 83
2004-03-04 08:50:06 51°9.287 2°36.208 5.7 274 4.5 102120 83
2004-03-04 08:50:11 51°9.286 2°36.202 5.3 281 4.5 102120 83
2004-03-04 08:50:16 51°9.284 2°36.196 5.1 278 4.5 102120 83
2004-03-04 08:50:22 51°9.282 2°36.189 5.8 278 4.5 102130 83
2004-03-04 08:50:26 51°9.281 2°36.184 3.3 274 4.5 102130 83
2004-03-04 08:50:30 51°9.279 2°36.18 5.2 282 4.5 102130 83
2004-03-04 08:50:36 51°9.277 2°36.173 4.8 276 4.5 102130 83
2004-03-04 08:50:42 51°9.275 2°36.166 5.4 278 4.5 102120 83
2004-03-04 08:50:46 51°9.273 2°36.161 5 281 4.5 102120 83
2004-03-04 08:50:52 51°9.271 2°36.155 4.9 283 4.5 102120 83
2004-03-04 08:50:56 51°9.269 2°36.15 4.9 281 4.5 102120 83
2004-03-04 08:51:00 51°9.268 2°36.146 5 282 4.5 102130 83
2004-03-04 08:51:06 51°9.265 2°36.139 4.6 279 4.5 102130 83
2004-03-04 08:51:12 51°9.263 2°36.132 5.4 281 4.5 102120 83
2004-03-04 08:51:16 51°9.261 2°36.128 4.9 282 4.5 102120 83
2004-03-04 08:51:22 51°9.259 2°36.121 5.1 278 4.5 102120 83
2004-03-04 08:51:26 51°9.257 2°36.117 4.6 282 4.5 102120 83
2004-03-04 08:51:31 51°9.255 2°36.111 5.5 279 4.5 102120 83
2004-03-04 08:51:36 51°9.253 2°36.105 5.4 275 4.5 102120 83
2004-03-04 08:51:42 51°9.251 2°36.099 5.7 279 4.5 102120 83
2004-03-04 08:51:46 51°9.249 2°36.094 5.4 283 4.5 102120 83
2004-03-04 08:51:50 51°9.247 2°36.09 5.3 278 4.5 102120 83
2004-03-04 08:51:56 51°9.245 2°36.083 5.4 280 4.5 102120 83
2004-03-04 08:52:02 51°9.243 2°36.076 5.5 275 4.5 102120 83
2004-03-04 08:52:06 51°9.241 2°36.071 5.4 277 4.5 102120 83